User: anonymous   Login
Location: Unspecified
(0.0000°N, 0.0000°E)
Time: 17:36:35
(UTC+00:00)
Language:

Cosmos 2353 - Orbit

View from above orbital plane
View from above orbital plane
View from above satellite
View from above satellite

Ground track
Ground track

The orbit data is extracted from the following two-line orbital elements,

1 25364U 98036B   18170.68678799  .00000056  00000-0  37176-3 0  9991
2 25364  82.5906 269.4284 0355376 219.5119 137.9546 12.21800198892505
Epoch (UTC): 19 June 2018 16:28:58
Eccentricity: 0.0355376
inclination: 82.5906°
perigee height: 1302 km
apogee height: 1867 km
right ascension of ascending node: 269.4284°
argument of perigee: 219.5119°
revolutions per day: 12.21800198
mean anomaly at epoch: 137.9546°
orbit number at epoch: 89250

The dashed part of the orbit path shows where the satellite is in the earth's shadow,  

DLR